Weather History for Maastricht, Netherlands

Change the Weather History Date:

Wednesday, October 24, 2012

  Actual Average Record
Temperature  
Mean Temperature 54 °F -  
Max Temperature 61 °F 49 °F 68 °F (2004)
Min Temperature 46 °F 38 °F 23 °F (2003)
Degree Days  
Heating Degree Days 12    
Growing Degree Days 4 (Base 50)    
Moisture  
Dew Point 49 °F    
Average Humidity 90    
Maximum Humidity 100    
Minimum Humidity 68    
Precipitation  
Precipitation 0.00 in 0.09 in - ()
Sea Level Pressure  
Sea Level Pressure 30.11 in    
Wind  
Wind Speed 7 mph ()    
Max Wind Speed 13 mph    
Max Gust Speed -    
Visibility 2.4 miles    
Events Fog    
Averages and records for this station are not official NWS values.
T = Trace of Precipitation, MM = Missing Value Source: Averaged Metar Reports

Daily Weather History Graph

Daily Weather History Graph

Search for Another Location

Airport:

Trip Planner

Search our weather history database for the weather conditions in past years. The results will help you decide how hot, cold, wet, or windy it might be!

Date:

Astronomy

Oct. 24, 2012 Rise Set
Actual Time 8:15 AM CEST 6:25 PM CEST
Civil Twilight 7:41 AM CEST 6:59 PM CEST
Nautical Twilight 7:03 AM CEST 7:38 PM CEST
Astronomical Twilight 6:25 AM CEST 8:16 PM CEST
Moon 4:01 PM CEST (10/24) 2:21 AM CEST (10/24)
Length of Visible Light 11h 17m
Length of Day
10h 10m
Waxing Gibbous, 73% of the Moon is Illuminated
Oct 24
Waxing Gibbous
Oct 29
Full
Nov 7
Last Quarter
Nov 13
New
Nov 20
First Quarter

Hourly Weather History & Observations

Time (CEST) Temp. Windchill Dew Point Humidity Pressure Visibility Wind Dir Wind Speed Gust Speed Precip Events Conditions
12:25 AM 51.8 °F - 48.2 °F 88% 30.15 in 3.7 mi NE 9.2 mph - N/A   Unknown
12:55 AM 50.0 °F - 48.2 °F 94% 30.15 in 3.7 mi NE 8.1 mph - N/A   Unknown
1:25 AM 50.0 °F - 48.2 °F 94% 30.18 in 3.1 mi NE 9.2 mph - N/A   Mist
1:55 AM 50.0 °F - 48.2 °F 94% 30.15 in 3.1 mi ENE 9.2 mph - N/A   Mist
2:00 AM 50 °F - 47 °F 88% 30.19 in 3 mi ENE 8.9 mph - -   Mist
2:25 AM 50.0 °F - 48.2 °F 94% 30.15 in 3.1 mi ENE 9.2 mph - N/A   Mist
2:55 AM 48.2 °F - 46.4 °F 93% 30.15 in 3.1 mi ENE 8.1 mph - N/A   Mist
3:25 AM 48.2 °F - 46.4 °F 93% 30.15 in - East 5.8 mph - N/A   Mist
3:55 AM 46.4 °F 43.5 °F 46.4 °F 100% 30.15 in - NE 5.8 mph - N/A   Mist
4:25 AM 46.4 °F 43.5 °F 46.4 °F 100% 30.15 in - NE 5.8 mph - N/A   Mist
4:55 AM 46.4 °F 45.2 °F 46.4 °F 100% 30.15 in - East 3.5 mph - N/A   Mist
5:25 AM 46.4 °F 43.5 °F 46.4 °F 100% 30.15 in 1.9 mi ENE 5.8 mph - N/A   Mist
5:55 AM 46.4 °F 42.9 °F 46.4 °F 100% 30.15 in 1.8 mi ENE 6.9 mph - N/A   Mist
6:25 AM 46.4 °F 43.5 °F 46.4 °F 100% 30.12 in 1.7 mi ESE 5.8 mph - N/A   Mist
6:55 AM 46.4 °F 44.3 °F 46.4 °F 100% 30.12 in 1.9 mi SE 4.6 mph - N/A   Mist
7:25 AM 48.2 °F - 46.4 °F 93% 30.09 in 2.2 mi SSE 5.8 mph - N/A   Mist
7:55 AM 48.2 °F - 46.4 °F 93% 30.09 in - SE 3.5 mph - N/A   Mist
8:00 AM 47 °F - 46 °F 93% 30.12 in 2 mi SE 4.5 mph - -   Mist
8:25 AM 46.4 °F - 46.4 °F 100% 30.09 in 3.1 mi Variable 1.2 mph - N/A   Mist
8:55 AM 46.4 °F 44.3 °F 46.4 °F 100% 30.12 in - NNE 4.6 mph - N/A   Mist
9:25 AM 48.2 °F - 46.4 °F 93% 30.12 in 1.6 mi NE 5.8 mph - N/A   Mist
9:55 AM 48.2 °F - 48.2 °F 100% 30.12 in - NE 4.6 mph - N/A   Mist
10:25 AM 50.0 °F - 48.2 °F 94% 30.12 in 1.9 mi NE 12.7 mph - N/A   Partly Cloudy
10:55 AM 50.0 °F - 48.2 °F 94% 30.12 in 2.2 mi ENE 10.4 mph - N/A   Mist
11:00 AM 52 °F - 49 °F 86% 30.16 in 2 mi ENE 11.2 mph - -   Mist
11:25 AM 51.8 °F - 48.2 °F 88% 30.12 in 2.8 mi ENE 11.5 mph - N/A   Mist
11:55 AM 55.4 °F - 50.0 °F 82% 30.12 in 3.1 mi NE 9.2 mph - N/A   Mist
12:25 PM 55.4 °F - 50.0 °F 82% 30.12 in 3.1 mi ENE 6.9 mph - N/A   Mist
12:55 PM 57.2 °F - 51.8 °F 82% 30.12 in 3.7 mi NE 9.2 mph - N/A   Unknown
1:25 PM 59.0 °F - 51.8 °F 77% 30.12 in 3.7 mi NE 11.5 mph - N/A   Unknown
1:55 PM 59.0 °F - 51.8 °F 77% 30.12 in 3.1 mi NE 9.2 mph - N/A   Haze
2:00 PM 59 °F - 52 °F 71% 30.13 in 3 mi NE 8.9 mph - -   Light Haze
2:25 PM 60.8 °F - 51.8 °F 72% 30.09 in 3.7 mi NE 9.2 mph - N/A   Unknown
2:55 PM 60.8 °F - 51.8 °F 72% 30.09 in 3.7 mi NE 9.2 mph - N/A   Unknown
3:25 PM 60.8 °F - 51.8 °F 72% 30.09 in 4.3 mi ENE 9.2 mph - N/A   Unknown
3:55 PM 60.8 °F - 51.8 °F 72% 30.09 in 4.3 mi NE 10.4 mph - N/A   Unknown
4:25 PM 60.8 °F - 51.8 °F 72% 30.09 in 4.3 mi NE 11.5 mph - N/A   Unknown
4:55 PM 60.8 °F - 51.8 °F 72% 30.06 in 3.7 mi NE 10.4 mph - N/A   Unknown
5:00 PM 60 °F - 52 °F 68% 30.09 in 4 mi NE 8.9 mph - -   Light Haze
5:25 PM 59.0 °F - 51.8 °F 77% 30.06 in 3.7 mi NE 6.9 mph - N/A   Unknown
5:55 PM 59.0 °F - 51.8 °F 77% 30.06 in 2.8 mi NE 8.1 mph - N/A   Haze
6:25 PM 57.2 °F - 51.8 °F 82% 30.06 in 2.2 mi NNE 9.2 mph - N/A   Mist
6:55 PM 53.6 °F - 51.8 °F 94% 30.06 in 1.6 mi NE 8.1 mph - N/A   Mist
7:25 PM 53.6 °F - 51.8 °F 94% 30.06 in 1.5 mi NE 8.1 mph - N/A   Mist
7:55 PM 51.8 °F - 51.8 °F 100% 30.06 in 1.4 mi NE 6.9 mph - N/A   Mist
8:00 PM 53 °F - 51 °F 92% 30.09 in 1 mi ENE 6.7 mph - -   Mist
8:25 PM 51.8 °F - 50.0 °F 94% 30.06 in 1.4 mi NNE 9.2 mph - N/A   Mist
8:55 PM 51.8 °F - 50.0 °F 94% 30.06 in 1.2 mi ENE 11.5 mph - N/A   Mostly Cloudy
9:25 PM 51.8 °F - 50.0 °F 94% 30.06 in 0.8 mi ENE 11.5 mph - N/A   Overcast
9:55 PM 50.0 °F - 50.0 °F 100% 30.06 in 0.3 mi ENE 10.4 mph - N/A Fog Fog
10:25 PM 50.0 °F - 50.0 °F 100% 30.06 in 0.2 mi ENE 9.2 mph - N/A Fog Fog
10:55 PM 50.0 °F - 50.0 °F 100% 30.06 in 0.2 mi ENE 8.1 mph - N/A Fog Fog
11:00 PM 50 °F - 50 °F 100% 30.08 in 0 mi ENE 8.9 mph - - Fog Fog
11:25 PM 50.0 °F - 50.0 °F 100% 30.06 in 0.2 mi ENE 6.9 mph - N/A Fog Fog
11:55 PM 50.0 °F - 50.0 °F 100% 30.06 in 0.2 mi ENE 8.1 mph - N/A Fog Fog